Total_Precipitation_Accumulation
0.04 0.07 0.07 0.07 0.08 0.12 0.15 0.19 0.21 0.34 0.41 0.42 0.44 0.43 0.34 0.33 0.35 0.33 0.30 0.32 0.34 0.35 0.35 0.34 0.35 0.35 0.34 0.35 0.37 0.38 0.38 0.37 0.41 0.47 0.43 0.39 0.40 0.42 0.41 0.40 0.41 0.44 0.45
0.04 0.07 0.10 0.09 0.07 0.10 0.12 0.16 0.18 0.24 0.33 0.34 0.38 0.41 0.37 0.38 0.38 0.36 0.35 0.35 0.35 0.34 0.33 0.33 0.35 0.36 0.36 0.33 0.33 0.36 0.39 0.36 0.36 0.45 0.48 0.42 0.37 0.33 0.30 0.30 0.33 0.38 0.45
0.03 0.06 0.08 0.10 0.10 0.10 0.12 0.15 0.17 0.21 0.27 0.33 0.40 0.47 0.52 0.48 0.46 0.41 0.37 0.36 0.36 0.35 0.34 0.34 0.35 0.36 0.39 0.38 0.33 0.33 0.39 0.40 0.38 0.42 0.58 0.64 0.47 0.33 0.26 0.26 0.28 0.31 0.32
0.03 0.04 0.06 0.09 0.11 0.12 0.13 0.16 0.21 0.20 0.22 0.27 0.38 0.41 0.43 0.41 0.35 0.33 0.35 0.36 0.37 0.36 0.35 0.35 0.36 0.38 0.39 0.40 0.41 0.38 0.39 0.42 0.42 0.41 0.43 0.50 0.52 0.58 0.42 0.21 0.19 0.22 0.25
0.03 0.03 0.04 0.06 0.10 0.12 0.13 0.15 0.22 0.25 0.23 0.23 0.29 0.38 0.41 0.39 0.38 0.37 0.37 0.37 0.38 0.37 0.37 0.35 0.35 0.37 0.38 0.38 0.40 0.42 0.44 0.45 0.46 0.47 0.45 0.40 0.38 0.46 0.63 0.39 0.19 0.18 0.19
0.04 0.05 0.06 0.07 0.08 0.11 0.13 0.16 0.20 0.24 0.25 0.26 0.27 0.33 0.39 0.41 0.43 0.45 0.42 0.38 0.38 0.37 0.37 0.37 0.36 0.36 0.37 0.37 0.39 0.41 0.43 0.45 0.46 0.47 0.48 0.51 0.53 0.47 0.56 0.54 0.31 0.24 0.20
0.05 0.05 0.06 0.08 0.09 0.09 0.11 0.15 0.19 0.23 0.25 0.27 0.28 0.29 0.33 0.38 0.40 0.44 0.44 0.42 0.39 0.40 0.41 0.40 0.38 0.37 0.39 0.41 0.43 0.45 0.45 0.46 0.47 0.47 0.49 0.52 0.54 0.54 0.61 0.67 0.53 0.38 0.26
0.06 0.05 0.04 0.05 0.07 0.09 0.10 0.13 0.16 0.20 0.25 0.27 0.29 0.30 0.31 0.34 0.35 0.39 0.44 0.45 0.41 0.39 0.44 0.47 0.46 0.44 0.45 0.49 0.53 0.55 0.55 0.54 0.54 0.53 0.54 0.58 0.56 0.58 0.64 0.73 0.80 0.68 0.39
0.07 0.06 0.05 0.05 0.05 0.06 0.08 0.11 0.14 0.16 0.19 0.24 0.30 0.32 0.31 0.32 0.32 0.32 0.37 0.42 0.40 0.37 0.40 0.47 0.54 0.58 0.58 0.58 0.61 0.65 0.65 0.67 0.66 0.66 0.65 0.67 0.62 0.60 0.62 0.68 0.84 1.07 0.89
0.07 0.07 0.06 0.04 0.05 0.07 0.07 0.10 0.14 0.15 0.17 0.19 0.24 0.30 0.32 0.33 0.33 0.32 0.33 0.38 0.42 0.42 0.40 0.42 0.49 0.59 0.64 0.65 0.66 0.68 0.71 0.77 0.78 0.79 0.77 0.74 0.72 0.72 0.72 0.73 0.78 0.94 1.13
0.11 0.10 0.07 0.05 0.05 0.08 0.09 0.10 0.15 0.15 0.17 0.18 0.20 0.24 0.33 0.36 0.39 0.41 0.41 0.41 0.45 0.50 0.50 0.47 0.45 0.48 0.57 0.67 0.75 0.76 0.79 0.84 0.84 0.84 0.86 0.85 0.84 0.88 0.87 0.88 0.88 0.93 1.11
0.12 0.11 0.08 0.07 0.08 0.09 0.12 0.14 0.17 0.17 0.18 0.18 0.21 0.22 0.29 0.37 0.42 0.46 0.49 0.50 0.52 0.55 0.58 0.58 0.55 0.50 0.51 0.61 0.70 0.74 0.77 0.82 0.84 0.87 0.92 0.92 0.93 0.96 0.96 1.01 1.01 0.99 1.02
0.09 0.09 0.10 0.10 0.11 0.11 0.13 0.18 0.22 0.20 0.20 0.20 0.22 0.24 0.29 0.37 0.45 0.51 0.54 0.55 0.58 0.63 0.65 0.67 0.67 0.63 0.63 0.68 0.72 0.76 0.78 0.80 0.80 0.82 0.89 0.94 1.01 1.05 1.03 1.04 1.05 1.00 0.94
0.08 0.10 0.11 0.11 0.13 0.14 0.15 0.19 0.23 0.22 0.25 0.27 0.27 0.32 0.40 0.44 0.49 0.55 0.57 0.58 0.60 0.65 0.70 0.72 0.74 0.76 0.81 0.94 0.96 0.87 0.86 0.82 0.79 0.79 0.84 0.91 1.03 1.12 1.20 1.27 1.19 1.11 1.16
0.10 0.13 0.14 0.13 0.16 0.17 0.18 0.22 0.28 0.30 0.36 0.42 0.43 0.43 0.44 0.48 0.48 0.50 0.54 0.57 0.61 0.64 0.66 0.66 0.70 0.76 0.89 1.19 1.23 1.05 0.95 0.89 0.84 0.79 0.80 0.84 1.01 1.24 1.45 1.58 1.53 1.50 1.57
0.13 0.14 0.17 0.18 0.18 0.22 0.29 0.34 0.40 0.43 0.45 0.50 0.53 0.50 0.46 0.45 0.50 0.51 0.51 0.54 0.59 0.60 0.60 0.60 0.62 0.72 0.90 1.32 1.36 1.15 0.93 0.89 0.89 0.87 0.81 0.79 0.88 1.00 1.19 1.42 1.50 1.61 1.74
0.15 0.15 0.18 0.23 0.24 0.28 0.37 0.44 0.47 0.48 0.50 0.52 0.55 0.57 0.50 0.45 0.48 0.50 0.49 0.48 0.49 0.51 0.53 0.54 0.54 0.57 0.75 1.18 1.27 1.11 0.86 0.78 0.78 0.79 0.74 0.74 0.73 0.81 0.78 0.92 1.02 1.12 1.31
0.21 0.20 0.20 0.23 0.28 0.34 0.40 0.46 0.50 0.53 0.54 0.53 0.51 0.51 0.46 0.40 0.42 0.47 0.46 0.42 0.42 0.46 0.48 0.49 0.48 0.45 0.51 0.90 1.17 1.06 0.76 0.70 0.71 0.71 0.73 0.74 0.72 0.72 0.81 0.89 0.92 0.86 0.89
0.19 0.19 0.18 0.19 0.24 0.30 0.35 0.37 0.42 0.45 0.47 0.47 0.42 0.41 0.38 0.37 0.41 0.46 0.43 0.39 0.38 0.40 0.42 0.44 0.47 0.44 0.44 0.70 1.09 1.13 0.78 0.75 0.70 0.71 0.83 0.89 0.80 0.84 1.04 1.17 1.13 0.94 0.81
0.14 0.14 0.14 0.15 0.17 0.22 0.25 0.26 0.29 0.32 0.35 0.37 0.38 0.42 0.37 0.34 0.38 0.44 0.42 0.40 0.38 0.40 0.42 0.45 0.52 0.51 0.45 0.61 1.02 1.28 0.91 0.82 0.72 0.73 0.85 1.12 1.10 1.09 1.18 1.24 1.27 1.21 0.92
0.15 0.15 0.16 0.19 0.21 0.25 0.26 0.26 0.24 0.25 0.27 0.28 0.31 0.39 0.41 0.38 0.37 0.39 0.41 0.41 0.41 0.42 0.44 0.46 0.50 0.53 0.49 0.53 0.83 1.30 1.20 0.97 0.87 0.85 0.91 1.05 1.15 1.16 1.19 1.26 1.24 1.27 1.22
0.19 0.19 0.22 0.27 0.30 0.30 0.26 0.23 0.20 0.19 0.20 0.24 0.26 0.31 0.39 0.38 0.38 0.39 0.39 0.39 0.42 0.45 0.47 0.48 0.50 0.52 0.54 0.57 0.73 1.09 1.31 1.22 1.02 0.96 0.87 0.95 1.10 1.16 1.19 1.15 1.16 1.25 1.30
0.21 0.23 0.24 0.29 0.32 0.28 0.22 0.21 0.20 0.18 0.18 0.21 0.25 0.30 0.35 0.35 0.35 0.37 0.38 0.38 0.40 0.46 0.51 0.53 0.55 0.54 0.56 0.61 0.76 0.88 1.00 1.13 1.06 1.03 1.17 1.15 1.11 1.07 1.01 1.00 1.07 1.09 1.06
0.26 0.25 0.24 0.27 0.30 0.25 0.21 0.20 0.18 0.18 0.18 0.22 0.28 0.32 0.36 0.37 0.36 0.35 0.36 0.38 0.44 0.58 0.67 0.67 0.66 0.61 0.59 0.69 0.89 0.95 0.92 1.00 1.04 1.03 1.12 1.13 1.02 0.91 0.87 0.90 0.91 0.90 0.97
0.32 0.30 0.29 0.30 0.28 0.23 0.18 0.19 0.22 0.23 0.25 0.27 0.32 0.36 0.39 0.40 0.40 0.37 0.38 0.42 0.46 0.70 0.96 0.94 0.93 0.94 0.92 0.99 1.30 1.32 1.21 1.22 1.24 1.26 1.24 1.12 0.98 0.90 0.82 0.78 0.75 0.76 0.87
0.38 0.35 0.31 0.27 0.24 0.21 0.19 0.19 0.22 0.27 0.29 0.30 0.33 0.38 0.44 0.45 0.44 0.42 0.42 0.44 0.48 0.58 0.66 0.73 0.87 0.89 1.03 1.18 1.18 1.16 1.16 1.20 1.24 1.28 1.20 1.00 0.89 0.85 0.80 0.79 0.79 0.77 0.80